Flag for U.S.A. Weather past 2 weeks in Vallejo, California, U.S.A.

Now
57 °F

Clear.


Feels Like: 57 °F
Forecast: 60 / 82 °F
Wind: No wind

Location: Napa County Airport

Current Time: Sep 1, 2014 at 4:29:47 AM

Latest Report: Sep 1, 2014 at 3:54 AM


Visibility: 9 mi

Pressure: 29.80 "Hg

Humidity: 96%

Dew point: 56 °F

Location of VallejoLocation

Historic Weather in Vallejo — Graph

°F

Vallejo temperature yesterday

Maximum temperature yesterday: 83 °F (at 2:54 PM)
Minimum temperature yesterday: 51 °F (at 5:54 AM)
Average temperature yesterday: 67 °F

Past Weeks' High & Low Weather Summary

 TemperatureHumidityPressure
High87 °F (Aug 30, 4:54 PM)100% (Aug 17, 2:54 AM)30.05 "Hg (Aug 17, 2:54 AM)
Low51 °F (Aug 30, 6:54 AM)26% (Aug 30, 4:54 PM)29.76 "Hg (Aug 18, 5:54 PM)
Average65 °F77%29.88 "Hg
* Reported Aug 17 2:54 AM — Sep 1 2:54 AM, Vallejo, Weather by CustomWeather, © 2014

Note: Actual official high and low records may vary slightly from our data, if they occured in-between our weather recording intervals... More about our weather records

Advertising

Vallejo weather history for previous 24 hours

 ConditionsComfort  
Time TempWeatherWind HumidityBarometerVisibility
2:54 AM
Sep 1
59 °FClear.No wind93%29.80 "Hg10 mi
1:54 AM60 °FClear.5 mph93%29.80 "Hg10 mi
12:54 AM61 °FClear.6 mph90%29.81 "Hg10 mi
11:54 PM
Aug 31
62 °FClear.7 mph86%29.81 "Hg10 mi
10:54 PM63 °FClear.3 mph84%29.81 "Hg10 mi
9:54 PM63 °FClear.8 mph84%29.81 "Hg10 mi
8:54 PM64 °FClear.8 mph84%29.80 "Hg10 mi
7:54 PM66 °FSunny.10 mph78%29.79 "Hg10 mi
6:54 PM71 °FSunny.12 mph68%29.78 "Hg10 mi
5:54 PM74 °FSunny.15 mph60%29.79 "Hg10 mi
4:54 PM79 °FSunny.16 mph48%29.80 "Hg10 mi
3:54 PM82 °FSunny.15 mph48%29.80 "Hg10 mi
2:54 PM83 °FSunny.14 mph43%29.83 "Hg10 mi
1:54 PM81 °FSunny.10 mph47%29.85 "Hg10 mi
12:54 PM79 °FSunny.9 mph48%29.87 "Hg10 mi
11:54 AM75 °FSunny.7 mph55%29.88 "Hg10 mi
10:54 AM71 °FSunny.7 mph63%29.89 "Hg10 mi
9:54 AM68 °FSunny.7 mph65%29.90 "Hg10 mi
8:54 AM65 °FSunny.6 mph76%29.89 "Hg10 mi
7:54 AM60 °FSunny.No wind86%29.88 "Hg10 mi
6:54 AM51 °FClear.No wind96%29.87 "Hg10 mi
5:54 AM51 °FClear.No wind100%29.85 "Hg10 mi
4:54 AM54 °FClear.No wind97%29.85 "Hg10 mi
Weather by CustomWeather, © 2014

See weather overviewHow to use our weather pages